M I D A S
Marine Information and Data Acquisition System
Tripno 2010 of the Zeeleeuw from 2010-10-12 08:21:20 to 2010-10-12 16:04:30
Back to CruiseResearch ActivitiesStationsMapUnderway DataData graphs

EquipmentUnitsComments
TimeDGPSUTC
LatitudeDGPSDM.mWGS84
LongitudeDGPSDM.mWGS84
SpeedMeteo Stationm/sRelative wind speed
DirectionMeteo StationdegRelative wind direction
TemperatureMeteo Stationdeg CelciusAir temperature
PressureMeteo StationPaAtmospheric pressure
HumidityMeteo Station%Relative humidity
Missing or incorrect values are displayed as -999
Metereological data collected by the RV Zeeleeuw from 2010-10-12 07:04:29 to 2010-10-13 10:25:50
                                                                                    Next 1000 lines
Time Latitude Longitude Speed Direction Temperature Pressure Humidity
2010-10-12 07:04:39 51°13.662 2°55.961 1.9 302 9.3 101900 49
2010-10-12 07:04:43 51°13.662 2°55.961 2.6 21 9.3 101900 49
2010-10-12 07:04:49 51°13.662 2°55.96 2.1 305 9.3 101900 49
2010-10-12 07:04:54 51°13.662 2°55.961 1.5 18 9.3 101900 50
2010-10-12 07:04:59 51°13.662 2°55.961 0.1 311 9.3 101900 50
2010-10-12 07:05:04 51°13.662 2°55.961 0.1 21 9.3 101900 51
2010-10-12 07:05:09 51°13.662 2°55.961 0.3 311 9.3 101900 51
2010-10-12 07:05:14 51°13.662 2°55.961 1.7 20 9.3 101900 50
2010-10-12 07:05:19 51°13.662 2°55.961 2.4 278 9.3 101900 50
2010-10-12 07:05:23 51°13.662 2°55.96 1.4 22 9.3 101900 50
2010-10-12 07:05:29 51°13.662 2°55.961 2.6 310 9.3 101900 50
2010-10-12 07:05:34 51°13.662 2°55.961 2 21 9.3 101900 49
2010-10-12 07:05:39 51°13.662 2°55.961 1.4 304 9.3 101900 49
2010-10-12 07:05:43 51°13.662 2°55.961 0.6 19 9.3 101900 50
2010-10-12 07:05:49 51°13.662 2°55.961 1.8 305 9.3 101900 50
2010-10-12 07:05:54 51°13.662 2°55.961 2 20 9.3 101900 49
2010-10-12 07:05:59 51°13.662 2°55.961 1.9 304 9.3 101900 49
2010-10-12 07:06:03 51°13.662 2°55.961 2.4 25 9.3 101900 50
2010-10-12 07:06:08 51°13.662 2°55.961 2.2 240 9.3 101900 50
2010-10-12 07:06:14 51°13.662 2°55.961 1.2 22 9.3 101900 48
2010-10-12 07:06:19 51°13.662 2°55.961 0.3 307 9.3 101900 48
2010-10-12 07:06:23 51°13.662 2°55.961 2.7 28 9.3 101900 52
2010-10-12 07:06:28 51°13.662 2°55.961 3 239 9.3 101900 52
2010-10-12 07:06:34 51°13.662 2°55.961 3.1 25 9.3 101900 48
2010-10-12 07:06:39 51°13.662 2°55.961 2.9 32 9.3 101900 48
2010-10-12 07:06:43 51°13.662 2°55.961 3.3 22 9.3 101900 50
2010-10-12 07:06:49 51°13.662 2°55.961 3.2 243 9.3 101900 50
2010-10-12 07:06:54 51°13.662 2°55.961 3 23 9.3 101900 52
2010-10-12 07:06:59 51°13.662 2°55.961 2.6 308 9.3 101900 52
2010-10-12 07:07:03 51°13.662 2°55.961 3.1 20 9.3 101900 48
2010-10-12 07:07:08 51°13.662 2°55.961 4 241 9.3 101900 48
2010-10-12 07:07:14 51°13.662 2°55.961 3.1 24 9.3 101900 50
2010-10-12 07:07:19 51°13.662 2°55.961 1.5 307 9.3 101900 50
2010-10-12 07:07:24 51°13.662 2°55.961 3.1 20 9.3 101900 49
2010-10-12 07:07:29 51°13.662 2°55.961 3.5 309 9.3 101900 49
2010-10-12 07:07:34 51°13.662 2°55.961 4.2 19 9.3 101900 48
2010-10-12 07:07:39 51°13.662 2°55.961 5.3 308 9.3 101900 48
2010-10-12 07:07:43 51°13.662 2°55.961 3.8 24 9.3 101900 49
2010-10-12 07:07:49 51°13.662 2°55.96 4.1 307 9.3 101900 49
2010-10-12 07:07:53 51°13.662 2°55.96 4 21 9.3 101900 49
2010-10-12 07:07:59 51°13.662 2°55.961 4.1 308 9.3 101900 49
2010-10-12 07:08:04 51°13.662 2°55.961 4 22 9.3 101900 49
2010-10-12 07:08:09 51°13.662 2°55.961 2.4 309 9.3 101900 49
2010-10-12 07:08:14 51°13.661 2°55.961 3.1 22 9.3 101900 49
2010-10-12 07:08:19 51°13.662 2°55.961 2.5 310 9.3 101900 49
2010-10-12 07:08:23 51°13.662 2°55.961 1.6 26 9.3 101900 52
2010-10-12 07:08:29 51°13.661 2°55.961 0.6 310 9.3 101900 52
2010-10-12 07:08:34 51°13.661 2°55.961 0.3 22 9.3 101900 49
2010-10-12 07:08:38 51°13.661 2°55.961 0.1 306 9.3 101900 49
2010-10-12 07:08:43 51°13.662 2°55.961 0.1 23 9.3 101900 52
2010-10-12 07:08:48 51°13.661 2°55.961 -999 306 9.3 101900 52
2010-10-12 07:08:53 51°13.661 2°55.961 -999 23 9.3 101900 50
2010-10-12 07:08:58 51°13.661 2°55.961 0.1 238 9.3 101900 50
2010-10-12 07:09:03 51°13.662 2°55.961 0.1 257 9.4 101900 50
2010-10-12 07:09:08 51°13.662 2°55.961 2.5 254 9.4 101900 50
2010-10-12 07:09:13 51°13.662 2°55.961 2.4 23 9.3 101900 50
2010-10-12 07:09:18 51°13.662 2°55.961 1.8 252 9.3 101900 50
2010-10-12 07:09:23 51°13.662 2°55.961 1.8 257 9.3 101910 49
2010-10-12 07:09:28 51°13.661 2°55.961 1.6 308 9.3 101910 49
2010-10-12 07:09:33 51°13.662 2°55.961 1.1 23 9.3 101910 50
2010-10-12 07:09:38 51°13.662 2°55.961 0.1 306 9.3 101910 50
2010-10-12 07:09:43 51°13.662 2°55.961 1.8 21 9.4 101900 51
2010-10-12 07:09:48 51°13.661 2°55.961 3.2 302 9.4 101900 51
2010-10-12 07:09:53 51°13.661 2°55.961 3.7 252 9.4 101900 50
2010-10-12 07:09:58 51°13.662 2°55.961 3.1 307 9.4 101900 50
2010-10-12 07:10:03 51°13.662 2°55.961 3 21 9.4 101900 52
2010-10-12 07:10:08 51°13.662 2°55.961 1.7 303 9.4 101900 52
2010-10-12 07:10:14 51°13.662 2°55.961 2.6 258 9.4 101900 52
2010-10-12 07:10:19 51°13.662 2°55.961 2.6 258 9.4 101900 52
2010-10-12 07:10:24 51°13.662 2°55.961 2.6 258 9.4 101900 52
2010-10-12 07:10:29 51°13.662 2°55.96 2.6 258 9.4 101900 52
2010-10-12 07:10:34 51°13.662 2°55.96 2.6 258 -999 -999 -999
2010-10-12 07:10:38 51°13.662 2°55.96 2.6 258 -999 -999 -999
2010-10-12 07:10:43 51°13.662 2°55.96 -999 -999 -999 -999 -999
2010-10-12 07:10:49 51°13.662 2°55.96 -999 23 -999 -999 -999
2010-10-12 07:10:53 51°13.662 2°55.96 2.6 10 -999 -999 -999
2010-10-12 07:10:59 51°13.662 2°55.961 3.2 304 -999 -999 -999
2010-10-12 07:11:04 51°13.662 2°55.961 2.4 19 -999 -999 -999
2010-10-12 07:11:09 51°13.662 2°55.961 2.3 309 -999 -999 -999
2010-10-12 07:11:14 51°13.662 2°55.961 3.9 245 9.3 -999 37
2010-10-12 07:11:19 51°13.662 2°55.961 2.5 309 9.3 -999 37
2010-10-12 07:11:23 51°13.662 2°55.961 2.2 22 9.4 -999 50
2010-10-12 07:11:28 51°13.662 2°55.961 2.1 34 9.4 -999 50
2010-10-12 07:11:33 51°13.662 2°55.961 2.6 25 9.4 101900 52
2010-10-12 07:11:39 51°13.662 2°55.96 2 238 9.4 101900 52
2010-10-12 07:11:43 51°13.662 2°55.961 2.2 21 9.4 101900 49
2010-10-12 07:11:48 51°13.662 2°55.96 2.2 306 9.4 101900 49
2010-10-12 07:11:53 51°13.662 2°55.96 2.5 28 9.4 101900 49
2010-10-12 07:11:58 51°13.662 2°55.96 1.7 309 9.4 101900 49
2010-10-12 07:12:03 51°13.662 2°55.96 1.4 20 9.4 101910 50
2010-10-12 07:12:08 51°13.662 2°55.96 1 305 9.4 101910 50
2010-10-12 07:12:12 51°13.662 2°55.96 0.3 20 9.4 101910 49
2010-10-12 07:12:17 51°13.662 2°55.96 1.8 302 9.4 101910 49
2010-10-12 07:12:22 51°13.662 2°55.96 2.2 250 9.4 101910 50
2010-10-12 07:12:28 51°13.662 2°55.96 2.3 308 9.4 101910 50
2010-10-12 07:12:32 51°13.662 2°55.96 2.7 21 9.4 101910 50
2010-10-12 07:12:37 51°13.662 2°55.96 2.6 303 9.4 101910 50
2010-10-12 07:12:42 51°13.662 2°55.96 3.2 23 9.4 101910 51
2010-10-12 07:12:47 51°13.662 2°55.961 1.8 308 9.4 101910 51
2010-10-12 07:12:52 51°13.662 2°55.961 2.1 23 9.4 101910 49
2010-10-12 07:12:56 51°13.662 2°55.961 2.8 308 9.4 101910 49
2010-10-12 07:13:01 51°13.662 2°55.961 0.9 22 9.4 101910 49
2010-10-12 07:13:07 51°13.662 2°55.961 1.5 241 9.4 101910 49
2010-10-12 07:13:12 51°13.662 2°55.961 1.6 246 9.4 101910 50
2010-10-12 07:13:16 51°13.662 2°55.961 2.4 308 9.4 101910 50
2010-10-12 07:13:21 51°13.662 2°55.961 1.7 22 9.4 101910 51
2010-10-12 07:13:26 51°13.662 2°55.961 2.7 308 9.4 101910 51
2010-10-12 07:13:31 51°13.662 2°55.961 2.2 23 9.4 101910 49
2010-10-12 07:13:36 51°13.662 2°55.961 1.5 307 9.4 101910 49
2010-10-12 07:13:41 51°13.662 2°55.961 2.2 22 9.4 101910 48
2010-10-12 07:13:46 51°13.662 2°55.961 1.8 308 9.4 101910 48
2010-10-12 07:13:51 51°13.662 2°55.961 1.6 243 9.4 101910 49
2010-10-12 07:13:56 51°13.662 2°55.96 3.9 245 9.4 101910 49
2010-10-12 07:14:00 51°13.662 2°55.96 2.8 250 9.4 101910 49
2010-10-12 07:14:05 51°13.662 2°55.961 2.4 308 9.4 101910 49
2010-10-12 07:14:10 51°13.662 2°55.961 2.3 26 9.4 101910 52
2010-10-12 07:14:16 51°13.662 2°55.96 1.1 311 9.4 101910 52
2010-10-12 07:14:20 51°13.662 2°55.961 1.5 257 9.4 101910 49
2010-10-12 07:14:25 51°13.662 2°55.961 0.8 303 9.4 101910 49
2010-10-12 07:14:30 51°13.662 2°55.961 1.8 21 9.4 101910 48
2010-10-12 07:14:35 51°13.662 2°55.961 1.2 309 9.4 101910 48
2010-10-12 07:14:40 51°13.662 2°55.961 0.2 26 9.5 101910 50
2010-10-12 07:14:45 51°13.662 2°55.961 0.1 306 9.5 101910 50
2010-10-12 07:14:49 51°13.662 2°55.961 0.1 253 9.5 101910 51
2010-10-12 07:14:55 51°13.662 2°55.961 0.1 311 9.5 101910 51
2010-10-12 07:15:00 51°13.662 2°55.961 2.2 19 9.5 101910 50
2010-10-12 07:15:05 51°13.662 2°55.961 2.1 301 9.5 101910 50
2010-10-12 07:15:09 51°13.662 2°55.961 2.9 21 9.5 101920 50
2010-10-12 07:15:15 51°13.662 2°55.961 1.8 304 9.5 101920 50
2010-10-12 07:15:20 51°13.662 2°55.96 2.4 251 9.5 101910 51
2010-10-12 07:15:25 51°13.662 2°55.96 3.2 307 9.5 101910 51
2010-10-12 07:15:30 51°13.662 2°55.96 2 22 9.5 101920 52
2010-10-12 07:15:35 51°13.662 2°55.96 3.2 303 9.5 101920 52
2010-10-12 07:15:40 51°13.663 2°55.96 2.8 23 9.5 101910 50
2010-10-12 07:15:44 51°13.662 2°55.96 2.8 303 9.5 101910 50
2010-10-12 07:15:50 51°13.662 2°55.96 3.7 25 9.5 101920 51
2010-10-12 07:15:55 51°13.662 2°55.96 3.7 306 9.5 101920 51
2010-10-12 07:16:00 51°13.662 2°55.96 3.1 245 9.5 101910 52
2010-10-12 07:16:04 51°13.663 2°55.96 2.4 307 9.5 101910 52
2010-10-12 07:16:09 51°13.662 2°55.96 2.1 22 9.5 101920 49
2010-10-12 07:16:15 51°13.663 2°55.96 0.2 308 9.5 101920 49
2010-10-12 07:16:20 51°13.662 2°55.96 0.1 250 9.5 101920 48
2010-10-12 07:16:25 51°13.663 2°55.961 0.9 301 9.5 101920 48
2010-10-12 07:16:29 51°13.662 2°55.961 2.4 27 9.5 101910 52
2010-10-12 07:16:35 51°13.662 2°55.961 2 308 9.5 101910 52
2010-10-12 07:16:40 51°13.662 2°55.961 2.8 22 9.5 101910 50
2010-10-12 07:16:44 51°13.663 2°55.961 2.3 308 9.5 101910 50
2010-10-12 07:16:50 51°13.662 2°55.961 1.8 28 9.5 101910 51
2010-10-12 07:16:55 51°13.662 2°55.961 2.1 307 9.5 101910 51
2010-10-12 07:17:00 51°13.662 2°55.961 1.1 28 9.5 101910 52
2010-10-12 07:17:04 51°13.663 2°55.961 1.9 305 9.5 101910 52
2010-10-12 07:17:10 51°13.662 2°55.961 2 19 9.5 101920 49
2010-10-12 07:17:15 51°13.662 2°55.961 1.5 309 9.5 101920 49
2010-10-12 07:17:20 51°13.663 2°55.961 1.8 250 9.5 101910 50
2010-10-12 07:17:24 51°13.663 2°55.961 1.9 253 9.5 101910 50
2010-10-12 07:17:30 51°13.663 2°55.961 2.2 259 9.5 101910 48
2010-10-12 07:17:35 51°13.663 2°55.961 4.1 304 9.5 101910 48
2010-10-12 07:17:40 51°13.663 2°55.961 2.8 27 9.5 101910 49
2010-10-12 07:17:44 51°13.663 2°55.961 3.1 304 9.5 101910 49
2010-10-12 07:17:50 51°13.663 2°55.961 2.7 22 9.5 101910 51
2010-10-12 07:17:55 51°13.663 2°55.96 3 304 9.5 101910 51
2010-10-12 07:18:00 51°13.663 2°55.961 3.1 249 9.6 101910 49
2010-10-12 07:18:04 51°13.663 2°55.961 3 306 9.6 101910 49
2010-10-12 07:18:10 51°13.663 2°55.961 2.1 26 9.6 101910 52
2010-10-12 07:18:15 51°13.663 2°55.961 2 309 9.6 101910 52
2010-10-12 07:18:20 51°13.663 2°55.961 4 19 9.6 101910 51
2010-10-12 07:18:24 51°13.663 2°55.961 4.3 306 9.6 101910 51
2010-10-12 07:18:29 51°13.663 2°55.961 3.2 20 9.5 101910 49
2010-10-12 07:18:35 51°13.663 2°55.961 2.2 302 9.5 101910 49
2010-10-12 07:18:40 51°13.663 2°55.961 3.7 21 9.5 101910 51
2010-10-12 07:18:44 51°13.663 2°55.961 3.6 307 9.5 101910 51
2010-10-12 07:18:50 51°13.663 2°55.961 3.4 252 9.6 101910 49
2010-10-12 07:18:55 51°13.663 2°55.96 5.5 239 9.6 101910 49
2010-10-12 07:19:00 51°13.663 2°55.96 4.9 21 9.6 101920 51
2010-10-12 07:19:04 51°13.663 2°55.96 3.7 309 9.6 101920 51
2010-10-12 07:19:10 51°13.663 2°55.96 3.1 255 9.6 101910 49
2010-10-12 07:19:15 51°13.663 2°55.96 2.5 303 9.6 101910 49
2010-10-12 07:19:20 51°13.663 2°55.96 3.5 19 9.6 101910 51
2010-10-12 07:19:24 51°13.663 2°55.96 3.9 248 9.6 101910 51
2010-10-12 07:19:30 51°13.663 2°55.96 4.1 251 9.6 101920 52
2010-10-12 07:19:35 51°13.662 2°55.96 3.1 309 9.6 101920 52
2010-10-12 07:19:40 51°13.662 2°55.961 3.4 22 9.6 101910 52
2010-10-12 07:19:45 51°13.662 2°55.961 3.5 248 9.6 101910 52
2010-10-12 07:19:50 51°13.662 2°55.96 3.5 22 9.6 101920 52
2010-10-12 07:19:55 51°13.662 2°55.961 5.2 303 9.6 101920 52
2010-10-12 07:20:00 51°13.662 2°55.961 4.3 21 9.6 101920 49
2010-10-12 07:20:04 51°13.662 2°55.961 2.9 246 9.6 101920 49
2010-10-12 07:20:10 51°13.662 2°55.961 2.6 247 9.6 101920 51
2010-10-12 07:20:15 51°13.662 2°55.961 2.7 308 9.6 101920 51
2010-10-12 07:20:20 51°13.662 2°55.961 3.4 21 9.6 101920 51
2010-10-12 07:20:24 51°13.662 2°55.961 3.2 303 9.6 101920 51
2010-10-12 07:20:30 51°13.662 2°55.961 1.5 23 9.6 101920 49
2010-10-12 07:20:35 51°13.662 2°55.961 0.6 309 9.6 101920 49
2010-10-12 07:20:40 51°13.662 2°55.961 1 27 9.6 101920 50
2010-10-12 07:20:45 51°13.662 2°55.961 1.4 309 9.6 101920 50
2010-10-12 07:20:49 51°13.662 2°55.961 0.7 22 9.6 101910 51
2010-10-12 07:20:55 51°13.662 2°55.961 0.2 308 9.6 101910 51
2010-10-12 07:21:00 51°13.662 2°55.96 1.3 28 9.6 101920 52
2010-10-12 07:21:05 51°13.662 2°55.96 0.1 306 9.6 101920 52
2010-10-12 07:21:09 51°13.662 2°55.96 0.1 335 9.6 101920 51
2010-10-12 07:21:15 51°13.662 2°55.96 0.1 306 9.6 101920 51
2010-10-12 07:21:20 51°13.662 2°55.96 0.1 257 9.6 101910 50
2010-10-12 07:21:25 51°13.662 2°55.96 3.5 309 9.6 101910 50
2010-10-12 07:21:29 51°13.662 2°55.96 2.1 20 9.6 101910 50
2010-10-12 07:21:35 51°13.662 2°55.961 1.8 308 9.6 101910 50
2010-10-12 07:21:40 51°13.662 2°55.961 3.5 252 9.6 101910 48
2010-10-12 07:21:45 51°13.662 2°55.96 2.8 302 9.6 101910 48
2010-10-12 07:21:50 51°13.662 2°55.96 2.8 249 9.6 101910 49
2010-10-12 07:21:55 51°13.662 2°55.961 2.2 305 9.6 101910 49
2010-10-12 07:22:00 51°13.662 2°55.961 1.7 20 9.6 101920 49
2010-10-12 07:22:05 51°13.662 2°55.961 1.5 306 9.6 101920 49
2010-10-12 07:22:10 51°13.662 2°55.96 2.3 248 9.6 101920 51
2010-10-12 07:22:15 51°13.662 2°55.961 3.3 309 9.6 101920 51
2010-10-12 07:22:20 51°13.662 2°55.96 2.7 23 9.6 101910 49
2010-10-12 07:22:24 51°13.662 2°55.96 1.9 301 9.6 101910 49
2010-10-12 07:22:30 51°13.662 2°55.961 3.1 22 9.6 101920 49
2010-10-12 07:22:35 51°13.662 2°55.961 1.3 306 9.6 101920 49
2010-10-12 07:22:40 51°13.662 2°55.961 0.2 253 9.6 101920 48
2010-10-12 07:22:44 51°13.662 2°55.96 1.4 304 9.6 101920 48
2010-10-12 07:22:50 51°13.662 2°55.96 1.7 18 9.6 101920 50
2010-10-12 07:22:55 51°13.662 2°55.96 2.2 307 9.6 101920 50
2010-10-12 07:23:00 51°13.662 2°55.96 4 249 9.6 101920 50
2010-10-12 07:23:04 51°13.662 2°55.961 4.6 308 9.6 101920 50
2010-10-12 07:23:09 51°13.662 2°55.96 4 20 9.6 101910 48
2010-10-12 07:23:15 51°13.662 2°55.96 4.2 242 9.6 101910 48
2010-10-12 07:23:20 51°13.662 2°55.96 4.5 246 9.6 101920 49
2010-10-12 07:23:24 51°13.662 2°55.96 4.1 308 9.6 101920 49
2010-10-12 07:23:29 51°13.662 2°55.96 4.5 248 9.6 101920 52
2010-10-12 07:23:35 51°13.662 2°55.96 3.7 304 9.6 101920 52
2010-10-12 07:23:40 51°13.662 2°55.96 4.1 20 9.6 101920 49
2010-10-12 07:23:44 51°13.662 2°55.96 3.3 310 9.6 101920 49
2010-10-12 07:23:49 51°13.662 2°55.961 2.9 250 9.6 101920 50
2010-10-12 07:23:55 51°13.662 2°55.96 1.2 307 9.6 101920 50
2010-10-12 07:24:00 51°13.662 2°55.96 0.3 23 9.6 101930 50
2010-10-12 07:24:04 51°13.662 2°55.96 1.1 301 9.6 101930 50
2010-10-12 07:24:10 51°13.662 2°55.96 1.7 22 9.6 101920 50
2010-10-12 07:24:15 51°13.662 2°55.96 2.2 301 9.6 101920 50
2010-10-12 07:24:20 51°13.662 2°55.96 2.3 23 9.6 101920 49
2010-10-12 07:24:24 51°13.662 2°55.96 4.1 308 9.6 101920 49
2010-10-12 07:24:30 51°13.662 2°55.96 4 250 9.7 101920 49
2010-10-12 07:24:35 51°13.662 2°55.96 3.6 308 9.7 101920 49
2010-10-12 07:24:40 51°13.662 2°55.96 4.2 257 9.7 101920 49
2010-10-12 07:24:44 51°13.662 2°55.96 3.8 303 9.7 101920 49
2010-10-12 07:24:50 51°13.662 2°55.959 3.5 27 9.6 101920 51
2010-10-12 07:24:55 51°13.662 2°55.959 4.3 305 9.6 101920 51
2010-10-12 07:25:00 51°13.662 2°55.959 3.8 20 9.7 101920 51
2010-10-12 07:25:04 51°13.662 2°55.959 4.6 305 9.7 101920 51
2010-10-12 07:25:10 51°13.662 2°55.959 4.2 21 9.7 101920 49
2010-10-12 07:25:15 51°13.662 2°55.959 4.5 307 9.7 101920 49
2010-10-12 07:25:20 51°13.662 2°55.959 5.1 253 9.7 101920 49
2010-10-12 07:25:25 51°13.662 2°55.959 4.2 307 9.7 101920 49
2010-10-12 07:25:29 51°13.662 2°55.959 4.3 21 9.7 101930 50
2010-10-12 07:25:35 51°13.662 2°55.959 4.4 308 9.7 101930 50
2010-10-12 07:25:40 51°13.662 2°55.959 3.8 23 9.7 101920 49
2010-10-12 07:25:45 51°13.662 2°55.959 4.3 305 9.7 101920 49
2010-10-12 07:25:49 51°13.662 2°55.959 4.2 20 9.7 101920 49
2010-10-12 07:25:55 51°13.662 2°55.959 3.2 303 9.7 101920 49
2010-10-12 07:26:00 51°13.662 2°55.959 3 246 9.7 101930 48
2010-10-12 07:26:05 51°13.662 2°55.959 3.2 303 9.7 101930 48
2010-10-12 07:26:10 51°13.662 2°55.959 3 23 9.7 101920 50
2010-10-12 07:26:15 51°13.662 2°55.959 2.5 309 9.7 101920 50
2010-10-12 07:26:20 51°13.662 2°55.959 2.5 21 9.7 101920 48
2010-10-12 07:26:25 51°13.662 2°55.959 2.1 309 9.7 101920 48
2010-10-12 07:26:30 51°13.662 2°55.959 2.5 249 9.7 101920 50
2010-10-12 07:26:35 51°13.662 2°55.959 1.9 310 9.7 101920 50
2010-10-12 07:26:40 51°13.662 2°55.959 2 27 9.7 101920 49
2010-10-12 07:26:45 51°13.662 2°55.959 2.1 302 9.7 101920 49
2010-10-12 07:26:50 51°13.662 2°55.959 1.5 21 9.7 101920 50
2010-10-12 07:26:55 51°13.662 2°55.96 1.5 302 9.7 101920 50
2010-10-12 07:27:00 51°13.662 2°55.96 1.5 19 9.7 101920 51
2010-10-12 07:27:04 51°13.662 2°55.96 1.6 311 9.7 101920 51
2010-10-12 07:27:10 51°13.662 2°55.961 0.8 21 9.7 101920 52
2010-10-12 07:27:15 51°13.662 2°55.961 0.1 306 9.7 101920 52
2010-10-12 07:27:20 51°13.662 2°55.961 1.4 21 9.7 101920 48
2010-10-12 07:27:24 51°13.662 2°55.961 1.4 309 9.7 101920 48
2010-10-12 07:27:29 51°13.662 2°55.961 0.9 27 9.7 101920 50
2010-10-12 07:27:35 51°13.662 2°55.961 0.2 303 9.7 101920 50
2010-10-12 07:27:40 51°13.662 2°55.961 0.1 321 9.7 101920 52
2010-10-12 07:27:44 51°13.662 2°55.961 0.1 306 9.7 101920 52
2010-10-12 07:27:49 51°13.662 2°55.961 0.1 321 9.7 101920 48
2010-10-12 07:27:55 51°13.662 2°55.96 -999 306 9.7 101920 48
2010-10-12 07:28:00 51°13.662 2°55.96 0.3 23 9.7 101920 50
2010-10-12 07:28:05 51°13.662 2°55.96 2.3 301 9.7 101920 50
2010-10-12 07:28:09 51°13.662 2°55.96 1.9 22 9.7 101920 50
2010-10-12 07:28:15 51°13.661 2°55.96 0.2 311 9.7 101920 50
2010-10-12 07:28:20 51°13.661 2°55.96 2.9 20 9.7 101920 49
2010-10-12 07:28:25 51°13.661 2°55.96 3 303 9.7 101920 49
2010-10-12 07:28:30 51°13.661 2°55.96 2.8 21 9.8 101920 50
2010-10-12 07:28:35 51°13.661 2°55.96 2.4 304 9.8 101920 50
2010-10-12 07:28:40 51°13.661 2°55.96 2.9 22 9.8 101920 51
2010-10-12 07:28:45 51°13.661 2°55.959 1.7 307 9.8 101920 51
2010-10-12 07:28:50 51°13.661 2°55.958 1.8 26 9.8 101920 49
2010-10-12 07:28:55 51°13.662 2°55.956 1.6 308 9.8 101920 49
2010-10-12 07:29:00 51°13.662 2°55.953 2.7 21 9.8 101920 51
2010-10-12 07:29:04 51°13.663 2°55.95 2.5 303 9.8 101920 51
2010-10-12 07:29:10 51°13.664 2°55.946 3.4 27 9.8 101920 50
2010-10-12 07:29:15 51°13.665 2°55.942 0.9 243 9.8 101920 50
2010-10-12 07:29:21 51°13.666 2°55.936 0.3 20 9.8 101920 49
2010-10-12 07:29:27 51°13.668 2°55.929 0.1 306 9.8 101920 49
2010-10-12 07:29:32 51°13.669 2°55.924 0.1 23 9.8 101930 49
2010-10-12 07:29:38 51°13.671 2°55.916 -999 59 9.8 101930 49
2010-10-12 07:29:43 51°13.672 2°55.909 1.8 259 9.8 101920 49
2010-10-12 07:29:48 51°13.674 2°55.902 2.4 308 9.8 101920 49
2010-10-12 07:29:53 51°13.676 2°55.895 1.4 264 9.8 101920 50
2010-10-12 07:29:59 51°13.678 2°55.886 0.1 306 9.8 101920 50
2010-10-12 07:30:04 51°13.68 2°55.878 0.1 20 9.8 101920 51
2010-10-12 07:30:08 51°13.681 2°55.872 0.1 308 9.8 101920 51
2010-10-12 07:30:13 51°13.683 2°55.864 3.6 20 9.8 101920 50
2010-10-12 07:30:18 51°13.684 2°55.857 3.4 310 9.8 101920 50
2010-10-12 07:30:24 51°13.686 2°55.847 3.4 245 9.8 101920 50
2010-10-12 07:30:28 51°13.687 2°55.841 1.6 57 9.8 101920 50
2010-10-12 07:30:33 51°13.688 2°55.833 1.5 20 9.8 101930 51
2010-10-12 07:30:38 51°13.689 2°55.826 0.3 313 9.8 101930 51
2010-10-12 07:30:43 51°13.69 2°55.818 1.9 265 9.8 101930 50
2010-10-12 07:30:48 51°13.691 2°55.81 2.2 304 9.8 101930 50
2010-10-12 07:30:53 51°13.691 2°55.803 2.1 248 9.8 101920 49
2010-10-12 07:30:58 51°13.692 2°55.795 2.2 308 9.8 101920 49
2010-10-12 07:31:03 51°13.692 2°55.788 2.6 21 9.8 101920 52
2010-10-12 07:31:08 51°13.693 2°55.78 3 305 9.8 101920 52
2010-10-12 07:31:13 51°13.694 2°55.775 2.9 22 9.8 101920 49
2010-10-12 07:31:18 51°13.694 2°55.771 2.9 304 9.8 101920 49
2010-10-12 07:31:23 51°13.695 2°55.769 3 19 9.8 101920 48
2010-10-12 07:31:28 51°13.695 2°55.768 2.6 308 9.8 101920 48
2010-10-12 07:31:33 51°13.696 2°55.768 2.8 22 9.9 101930 50
2010-10-12 07:31:38 51°13.696 2°55.77 2.7 304 9.9 101930 50
2010-10-12 07:31:43 51°13.697 2°55.771 2.8 320 9.9 101920 48
2010-10-12 07:31:48 51°13.697 2°55.771 2.5 305 9.9 101920 48
2010-10-12 07:31:53 51°13.698 2°55.771 2.3 317 9.9 101920 49
2010-10-12 07:31:59 51°13.698 2°55.769 2.2 324 9.9 101920 49
2010-10-12 07:32:03 51°13.698 2°55.767 2.5 323 9.9 101920 49
2010-10-12 07:32:08 51°13.696 2°55.766 2.9 339 9.9 101920 49
2010-10-12 07:32:13 51°13.695 2°55.762 3.1 339 9.9 101920 49
2010-10-12 07:32:18 51°13.694 2°55.759 2.7 337 9.9 101920 49
2010-10-12 07:32:23 51°13.692 2°55.756 2.9 335 9.9 101920 48
2010-10-12 07:32:28 51°13.691 2°55.753 3.2 337 9.9 101920 48
2010-10-12 07:32:33 51°13.69 2°55.751 4.2 336 9.9 101910 50
2010-10-12 07:32:38 51°13.689 2°55.749 4.9 337 9.9 101910 50
2010-10-12 07:32:44 51°13.69 2°55.749 5.1 337 9.9 101920 52
2010-10-12 07:32:48 51°13.691 2°55.749 6.1 341 9.9 101920 52
2010-10-12 07:32:53 51°13.693 2°55.749 6.3 346 9.9 101920 48
2010-10-12 07:32:58 51°13.695 2°55.75 5.5 354 9.9 101920 48
2010-10-12 07:33:03 51°13.698 2°55.75 6.7 351 9.9 101920 49
2010-10-12 07:33:08 51°13.702 2°55.75 6.5 357 9.9 101920 49
2010-10-12 07:33:13 51°13.706 2°55.749 5.8 359 9.9 101920 49
2010-10-12 07:33:18 51°13.711 2°55.746 4.1 356 9.9 101920 49
2010-10-12 07:33:23 51°13.716 2°55.743 4.5 354 9.9 101910 49
2010-10-12 07:33:28 51°13.721 2°55.739 5.1 358 9.9 101910 49
2010-10-12 07:33:33 51°13.726 2°55.733 5.1 5 9.9 101910 51
2010-10-12 07:33:38 51°13.732 2°55.727 4.3 358 9.9 101910 51
2010-10-12 07:33:43 51°13.738 2°55.72 3.8 356 9.9 101920 48
2010-10-12 07:33:48 51°13.744 2°55.713 3.7 352 9.9 101920 48
2010-10-12 07:33:52 51°13.749 2°55.708 3.7 351 9.9 101920 48
2010-10-12 07:33:57 51°13.756 2°55.7 3.9 358 9.9 101920 48
2010-10-12 07:34:02 51°13.763 2°55.693 4.3 354 9.9 101920 50
2010-10-12 07:34:07 51°13.77 2°55.686 3.6 345 9.9 101920 50
2010-10-12 07:34:12 51°13.778 2°55.678 5.2 352 9.9 101920 51
2010-10-12 07:34:17 51°13.786 2°55.671 5.2 345 9.9 101920 51
2010-10-12 07:34:22 51°13.793 2°55.664 4.1 354 9.9 101920 50
2010-10-12 07:34:27 51°13.802 2°55.657 3.2 353 9.9 101920 50
2010-10-12 07:34:32 51°13.81 2°55.65 3.9 350 9.9 101920 48
2010-10-12 07:34:37 51°13.819 2°55.643 5.2 350 9.9 101920 48
2010-10-12 07:34:41 51°13.827 2°55.637 4.6 355 9.9 101920 48
2010-10-12 07:34:47 51°13.838 2°55.628 4.9 348 9.9 101920 48
2010-10-12 07:34:51 51°13.846 2°55.622 5.5 358 9.9 101920 48
2010-10-12 07:34:56 51°13.856 2°55.615 7.1 350 9.9 101920 48
2010-10-12 07:35:01 51°13.866 2°55.607 5.7 356 9.9 101920 47
2010-10-12 07:35:06 51°13.876 2°55.599 6.9 352 9.9 101920 47
2010-10-12 07:35:11 51°13.887 2°55.591 6.2 351 9.9 101920 51
2010-10-12 07:35:16 51°13.897 2°55.583 7.1 347 9.9 101920 51
2010-10-12 07:35:20 51°13.906 2°55.576 6.3 352 9.9 101920 48
2010-10-12 07:35:26 51°13.919 2°55.566 7.4 358 9.9 101920 48
2010-10-12 07:35:31 51°13.93 2°55.557 6.9 354 9.9 101910 50
2010-10-12 07:35:36 51°13.941 2°55.549 6.3 349 9.9 101910 50
2010-10-12 07:35:40 51°13.95 2°55.543 7.1 347 9.9 101920 49
2010-10-12 07:35:45 51°13.962 2°55.534 7.2 -999 9.9 101920 49
2010-10-12 07:35:50 51°13.973 2°55.526 5.7 359 9.9 101920 49
2010-10-12 07:35:55 51°13.985 2°55.517 6.4 2 9.9 101920 49
2010-10-12 07:36:00 51°13.996 2°55.508 8.3 3 9.9 101910 49
2010-10-12 07:36:05 51°14.008 2°55.5 6.8 1 9.9 101910 49
2010-10-12 07:36:10 51°14.02 2°55.491 6.7 349 10 101910 49
2010-10-12 07:36:15 51°14.032 2°55.482 6.7 357 10 101910 49
2010-10-12 07:36:20 51°14.044 2°55.473 7 356 10 101910 49
2010-10-12 07:36:24 51°14.054 2°55.466 6.9 349 10 101910 49
2010-10-12 07:36:30 51°14.069 2°55.455 7.9 352 10 101910 51
2010-10-12 07:36:35 51°14.081 2°55.446 6.9 353 10 101910 51
2010-10-12 07:36:40 51°14.093 2°55.436 7.4 353 10 101910 50
2010-10-12 07:36:44 51°14.103 2°55.428 10.1 353 10 101910 50
2010-10-12 07:36:50 51°14.117 2°55.416 7.5 -999 10 101910 49
2010-10-12 07:36:55 51°14.129 2°55.406 8.1 354 10 101910 49
2010-10-12 07:37:00 51°14.141 2°55.396 6.4 349 10 101920 50
2010-10-12 07:37:05 51°14.153 2°55.386 8.6 2 10 101920 50
2010-10-12 07:37:10 51°14.165 2°55.375 6.5 353 10 101910 48
2010-10-12 07:37:15 51°14.177 2°55.364 7.2 4 10 101910 48
2010-10-12 07:37:20 51°14.188 2°55.353 7.7 356 10 101910 49
2010-10-12 07:37:25 51°14.2 2°55.343 8.1 357 10 101910 49
2010-10-12 07:37:29 51°14.21 2°55.334 9.1 2 10 101910 50
2010-10-12 07:37:35 51°14.224 2°55.32 6.5 356 10 101910 50
2010-10-12 07:37:40 51°14.235 2°55.31 9.3 360 10 101910 49
2010-10-12 07:37:44 51°14.244 2°55.3 9 359 10 101910 49
2010-10-12 07:37:50 51°14.258 2°55.286 9.8 4 10.1 101910 48
2010-10-12 07:37:55 51°14.27 2°55.275 9.3 2 10.1 101910 48
2010-10-12 07:38:00 51°14.281 2°55.263 9.8 1 10.1 101910 50
2010-10-12 07:38:04 51°14.291 2°55.253 9.1 2 10.1 101910 50
2010-10-12 07:38:10 51°14.305 2°55.239 8.5 4 10.1 101900 48
2010-10-12 07:38:15 51°14.317 2°55.227 9.4 1 10.1 101900 48
2010-10-12 07:38:20 51°14.329 2°55.215 9.2 2 10.2 101900 50
2010-10-12 07:38:24 51°14.338 2°55.205 8.5 4 10.2 101900 50
2010-10-12 07:38:30 51°14.352 2°55.19 8.2 5 10.2 101900 48
2010-10-12 07:38:35 51°14.363 2°55.178 10.8 3 10.2 101900 48
2010-10-12 07:38:40 51°14.375 2°55.165 9.5 5 10.2 101890 50
2010-10-12 07:38:44 51°14.385 2°55.155 7.4 6 10.2 101890 50
2010-10-12 07:38:50 51°14.399 2°55.14 8.2 3 10.3 101890 48
2010-10-12 07:38:55 51°14.41 2°55.126 8.6 7 10.3 101890 48
2010-10-12 07:39:00 51°14.421 2°55.113 9.1 4 10.3 101890 50
2010-10-12 07:39:04 51°14.431 2°55.102 8.4 5 10.3 101890 50
2010-10-12 07:39:10 51°14.445 2°55.086 9.4 5 10.4 101900 50
2010-10-12 07:39:15 51°14.456 2°55.073 8 355 10.4 101900 50
2010-10-12 07:39:20 51°14.468 2°55.059 8.3 -999 10.4 101890 49
2010-10-12 07:39:24 51°14.478 2°55.048 10.5 4 10.4 101890 49
2010-10-12 07:39:30 51°14.492 2°55.032 8.5 5 10.3 101890 48
2010-10-12 07:39:35 51°14.504 2°55.018 8.6 6 10.3 101890 48
2010-10-12 07:39:40 51°14.516 2°55.004 9.5 8 10.4 101890 50
2010-10-12 07:39:44 51°14.525 2°54.991 8.5 6 10.4 101890 50
2010-10-12 07:39:50 51°14.538 2°54.97 8.3 6 10.4 101900 48
2010-10-12 07:39:55 51°14.548 2°54.951 8.9 6 10.4 101900 48
2010-10-12 07:40:00 51°14.559 2°54.933 8.1 9 10.5 101890 49
2010-10-12 07:40:05 51°14.568 2°54.913 8.2 7 10.5 101890 49
2010-10-12 07:40:10 51°14.575 2°54.89 8.5 11 10.5 101900 50
2010-10-12 07:40:15 51°14.582 2°54.866 6.5 13 10.5 101900 50
2010-10-12 07:40:20 51°14.588 2°54.842 6.7 16 10.5 101900 49
2010-10-12 07:40:24 51°14.592 2°54.821 6.2 16 10.5 101900 49
2010-10-12 07:40:30 51°14.598 2°54.79 7.7 15 10.4 101900 50
2010-10-12 07:40:35 51°14.603 2°54.763 7.4 12 10.4 101900 50
2010-10-12 07:40:40 51°14.608 2°54.737 6.7 18 10.5 101910 50
2010-10-12 07:40:44 51°14.612 2°54.716 5.7 16 10.5 101910 50
2010-10-12 07:40:49 51°14.613 2°54.688 5.9 17 10.5 101910 50
2010-10-12 07:40:55 51°14.614 2°54.655 5.4 35 10.5 101910 50
2010-10-12 07:41:00 51°14.61 2°54.628 5.2 37 10.5 101900 48
2010-10-12 07:41:04 51°14.606 2°54.607 4.5 42 10.5 101900 48
2010-10-12 07:41:10 51°14.598 2°54.576 3.7 26 10.6 101910 51
2010-10-12 07:41:15 51°14.59 2°54.552 2.2 51 10.6 101910 51
2010-10-12 07:41:20 51°14.579 2°54.528 1.4 28 10.6 101910 48
2010-10-12 07:41:24 51°14.57 2°54.511 1.1 301 10.6 101910 48
2010-10-12 07:41:30 51°14.556 2°54.485 0.8 257 10.6 101910 48
2010-10-12 07:41:35 51°14.543 2°54.463 1.8 56 10.6 101910 48
2010-10-12 07:41:40 51°14.53 2°54.44 1.3 265 10.6 101920 48
2010-10-12 07:41:44 51°14.52 2°54.423 2.5 59 10.6 101920 48
2010-10-12 07:41:50 51°14.504 2°54.395 3.2 24 10.7 101920 49
2010-10-12 07:41:55 51°14.491 2°54.372 3 55 10.7 101920 49
2010-10-12 07:42:00 51°14.478 2°54.35 2.8 22 10.7 101920 49
2010-10-12 07:42:05 51°14.465 2°54.327 2.7 50 10.7 101920 49
2010-10-12 07:42:10 51°14.453 2°54.303 2.1 19 10.7 101920 49
2010-10-12 07:42:15 51°14.44 2°54.278 1.6 52 10.7 101920 49
2010-10-12 07:42:20 51°14.43 2°54.252 0.5 29 10.7 101920 49
2010-10-12 07:42:24 51°14.418 2°54.235 1.7 58 10.7 101920 49
2010-10-12 07:42:29 51°14.407 2°54.209 0.5 23 10.7 101930 48
2010-10-12 07:42:35 51°14.392 2°54.18 1.2 54 10.7 101930 48
2010-10-12 07:42:40 51°14.381 2°54.154 1.1 23 10.7 101930 49
2010-10-12 07:42:44 51°14.372 2°54.133 0.4 51 10.7 101930 49
2010-10-12 07:42:49 51°14.362 2°54.107 0.1 26 10.7 101930 49
2010-10-12 07:42:55 51°14.347 2°54.077 0.7 51 10.7 101930 49
2010-10-12 07:43:00 51°14.337 2°54.05 0.3 22 10.7 101920 48
2010-10-12 07:43:04 51°14.328 2°54.029 0.1 52 10.7 101920 48
2010-10-12 07:43:10 51°14.314 2°53.998 0.3 26 10.7 101930 49
2010-10-12 07:43:15 51°14.305 2°53.97 0.1 45 10.7 101930 49
2010-10-12 07:43:20 51°14.294 2°53.943 0.1 45 10.7 101930 49
2010-10-12 07:43:24 51°14.286 2°53.921 1.4 53 10.7 101930 49
2010-10-12 07:43:29 51°14.276 2°53.894 0.7 34 10.7 101930 49
2010-10-12 07:43:35 51°14.265 2°53.86 1.7 27 10.7 101930 49
2010-10-12 07:43:40 51°14.255 2°53.832 0.2 31 10.7 101920 49
2010-10-12 07:43:45 51°14.247 2°53.803 2.5 41 10.7 101920 49
2010-10-12 07:43:49 51°14.239 2°53.781 1.5 22 10.8 101930 50
2010-10-12 07:43:55 51°14.228 2°53.746 1.9 53 10.8 101930 50
2010-10-12 07:44:00 51°14.218 2°53.718 1 40 10.8 101920 48
2010-10-12 07:44:05 51°14.21 2°53.689 1.8 32 10.8 101920 48
2010-10-12 07:44:09 51°14.201 2°53.668 0.6 40 10.8 101930 49
2010-10-12 07:44:15 51°14.19 2°53.633 1.3 25 10.8 101930 49
2010-10-12 07:44:20 51°14.181 2°53.604 2 39 10.8 101930 49
2010-10-12 07:44:25 51°14.171 2°53.577 1.8 42 10.8 101930 49
2010-10-12 07:44:29 51°14.164 2°53.553 2 42 10.8 101930 49
2010-10-12 07:44:35 51°14.153 2°53.519 2.2 40 10.8 101930 49
2010-10-12 07:44:40 51°14.143 2°53.491 1.9 43 10.8 101930 51
2010-10-12 07:44:44 51°14.137 2°53.467 2.5 37 10.8 101930 51
2010-10-12 07:44:50 51°14.125 2°53.433 2 22 10.8 101930 51
2010-10-12 07:44:55 51°14.117 2°53.403 2.5 56 10.8 101930 51
2010-10-12 07:45:00 51°14.106 2°53.376 1.6 22 10.8 101930 50
2010-10-12 07:45:04 51°14.1 2°53.351 2 59 10.8 101930 50
2010-10-12 07:45:10 51°14.087 2°53.319 1.1 24 10.8 101930 48
2010-10-12 07:45:15 51°14.078 2°53.289 2.4 33 10.8 101930 48
2010-10-12 07:45:20 51°14.068 2°53.262 1 40 10.8 101930 48
2010-10-12 07:45:24 51°14.06 2°53.238 1.6 42 10.8 101930 48
2010-10-12 07:45:29 51°14.049 2°53.211 0.6 39 10.8 101930 51
2010-10-12 07:45:35 51°14.038 2°53.177 1.2 54 10.8 101930 51
2010-10-12 07:45:40 51°14.028 2°53.148 1.8 38 10.7 101930 48
2010-10-12 07:45:45 51°14.018 2°53.12 1.8 59 10.7 101930 48
2010-10-12 07:45:49 51°14.01 2°53.097 2.6 42 10.7 101930 47
2010-10-12 07:45:55 51°13.998 2°53.063 2.5 55 10.7 101930 47
2010-10-12 07:46:00 51°13.989 2°53.034 3.1 42 10.7 101930 47
2010-10-12 07:46:05 51°13.978 2°53.007 2.2 52 10.7 101930 47
2010-10-12 07:46:09 51°13.97 2°52.983 2.5 44 10.7 101930 50
2010-10-12 07:46:15 51°13.958 2°52.95 1.9 77 10.7 101930 50
2010-10-12 07:46:20 51°13.948 2°52.921 2.2 22 10.7 101930 50
2010-10-12 07:46:25 51°13.938 2°52.893 1.7 52 10.7 101930 50
2010-10-12 07:46:29 51°13.931 2°52.87 1.5 19 10.7 101930 47
2010-10-12 07:46:35 51°13.918 2°52.837 0.5 43 10.7 101930 47
2010-10-12 07:46:40 51°13.909 2°52.808 2.3 25 10.7 101930 49
2010-10-12 07:46:44 51°13.901 2°52.786 2.4 44 10.7 101930 49
2010-10-12 07:46:50 51°13.889 2°52.752 2.3 42 10.7 101930 50
2010-10-12 07:46:55 51°13.879 2°52.724 2.4 54 10.7 101930 50
2010-10-12 07:47:00 51°13.868 2°52.697 2 29 10.7 101930 47
2010-10-12 07:47:04 51°13.86 2°52.675 2.4 56 10.7 101930 47
2010-10-12 07:47:10 51°13.847 2°52.641 1.7 19 10.7 101930 48
2010-10-12 07:47:15 51°13.838 2°52.612 3.2 58 10.7 101930 48
2010-10-12 07:47:20 51°13.826 2°52.587 2.2 19 10.7 101930 48
2010-10-12 07:47:24 51°13.818 2°52.564 3.2 58 10.7 101930 48
2010-10-12 07:47:29 51°13.808 2°52.536 1.9 25 10.7 101930 49
2010-10-12 07:47:35 51°13.795 2°52.501 2.6 59 10.7 101930 49
2010-10-12 07:47:40 51°13.785 2°52.475 2 22 10.7 101930 47
2010-10-12 07:47:44 51°13.775 2°52.455 0.4 51 10.7 101930 47
2010-10-12 07:47:49 51°13.765 2°52.426 1 25 10.6 101930 50
2010-10-12 07:47:55 51°13.752 2°52.393 0.2 53 10.6 101930 50
2010-10-12 07:48:00 51°13.741 2°52.365 0.5 21 10.6 101930 48
2010-10-12 07:48:04 51°13.733 2°52.342 1.9 53 10.6 101930 48
2010-10-12 07:48:09 51°13.722 2°52.315 0.6 21 10.6 101930 49
2010-10-12 07:48:15 51°13.71 2°52.28 1.4 45 10.6 101930 49
2010-10-12 07:48:20 51°13.699 2°52.253 2.3 27 10.7 101930 48
2010-10-12 07:48:24 51°13.69 2°52.23 2.3 45 10.7 101930 48
2010-10-12 07:48:29 51°13.681 2°52.202 2.4 42 10.7 101930 49
2010-10-12 07:48:35 51°13.667 2°52.169 0.6 34 10.7 101930 49
2010-10-12 07:48:40 51°13.658 2°52.139 0.1 37 10.7 101930 47
2010-10-12 07:48:44 51°13.649 2°52.119 0.1 54 10.7 101930 47
2010-10-12 07:48:50 51°13.636 2°52.085 1.7 42 10.7 101930 50
2010-10-12 07:48:55 51°13.625 2°52.057 1.9 53 10.7 101930 50
2010-10-12 07:49:00 51°13.614 2°52.03 1.4 23 10.7 101930 49
2010-10-12 07:49:04 51°13.605 2°52.007 2.1 45 10.7 101930 49
2010-10-12 07:49:10 51°13.593 2°51.974 1.9 21 10.7 101930 48
2010-10-12 07:49:15 51°13.582 2°51.946 1.1 52 10.7 101930 48
2010-10-12 07:49:20 51°13.572 2°51.917 0.5 21 10.7 101930 49
2010-10-12 07:49:24 51°13.563 2°51.895 0.7 55 10.7 101930 49
2010-10-12 07:49:30 51°13.551 2°51.861 2.4 18 10.7 101920 50
2010-10-12 07:49:35 51°13.541 2°51.833 1.2 51 10.7 101920 50
2010-10-12 07:49:40 51°13.53 2°51.804 1.8 43 10.7 101930 49
2010-10-12 07:49:44 51°13.522 2°51.782 2 53 10.7 101930 49
2010-10-12 07:49:49 51°13.512 2°51.754 2.1 44 10.7 101920 51
2010-10-12 07:49:55 51°13.5 2°51.719 2.2 58 10.7 101920 51
2010-10-12 07:50:00 51°13.489 2°51.691 1.5 39 10.7 101930 48
2010-10-12 07:50:04 51°13.482 2°51.668 0.8 27 10.7 101930 48
2010-10-12 07:50:09 51°13.472 2°51.639 1.8 39 10.7 101920 48
2010-10-12 07:50:15 51°13.459 2°51.605 2.3 36 10.7 101920 48
2010-10-12 07:50:20 51°13.45 2°51.576 2.1 44 10.7 101920 48
2010-10-12 07:50:24 51°13.44 2°51.554 1.8 35 10.7 101920 48
2010-10-12 07:50:29 51°13.431 2°51.524 1.7 41 10.8 101920 49
2010-10-12 07:50:35 51°13.419 2°51.491 1.6 42 10.8 101920 49
2010-10-12 07:50:40 51°13.407 2°51.463 1.2 37 10.8 101930 49
2010-10-12 07:50:44 51°13.4 2°51.439 1.5 52 10.8 101930 49
2010-10-12 07:50:50 51°13.388 2°51.406 1.7 21 10.8 101920 48
2010-10-12 07:50:55 51°13.378 2°51.377 0.9 45 10.8 101920 48
2010-10-12 07:51:00 51°13.369 2°51.348 2 40 10.7 101920 46
2010-10-12 07:51:04 51°13.359 2°51.327 0.2 34 10.7 101920 46
2010-10-12 07:51:10 51°13.347 2°51.293 2.5 44 10.7 101930 50
2010-10-12 07:51:15 51°13.335 2°51.267 0.5 52 10.7 101930 50
2010-10-12 07:51:20 51°13.326 2°51.238 2.7 40 10.8 101920 49
2010-10-12 07:51:25 51°13.315 2°51.211 0.7 36 10.8 101920 49
2010-10-12 07:51:30 51°13.305 2°51.184 2.7 42 10.8 101920 48
2010-10-12 07:51:35 51°13.294 2°51.157 2.9 34 10.8 101920 48
2010-10-12 07:51:40 51°13.284 2°51.129 3.2 44 10.8 101920 49
2010-10-12 07:51:44 51°13.275 2°51.106 3.3 39 10.8 101920 49
2010-10-12 07:51:50 51°13.263 2°51.073 2.6 36 10.8 101920 49
2010-10-12 07:51:55 51°13.254 2°51.045 2.6 35 10.8 101920 49
2010-10-12 07:52:00 51°13.244 2°51.018 1.8 37 10.8 101920 51
2010-10-12 07:52:04 51°13.236 2°50.994 1.9 29 10.8 101920 51
2010-10-12 07:52:09 51°13.226 2°50.965 2.5 41 10.8 101920 49
2010-10-12 07:52:15 51°13.213 2°50.932 2.5 39 10.8 101920 49
2010-10-12 07:52:20 51°13.205 2°50.905 2.7 37 10.8 101920 50
2010-10-12 07:52:24 51°13.196 2°50.883 2.6 45 10.8 101920 50
2010-10-12 07:52:30 51°13.185 2°50.849 2.2 45 10.8 101920 48
2010-10-12 07:52:35 51°13.176 2°50.82 2.3 40 10.8 101920 48
2010-10-12 07:52:40 51°13.167 2°50.793 2 43 10.8 101920 48
2010-10-12 07:52:44 51°13.158 2°50.771 1.8 44 10.8 101920 48
2010-10-12 07:52:50 51°13.147 2°50.738 1.6 36 10.8 101920 51
2010-10-12 07:52:55 51°13.136 2°50.71 0.2 51 10.8 101920 51
2010-10-12 07:53:00 51°13.126 2°50.681 0.6 41 10.8 101920 50
2010-10-12 07:53:04 51°13.118 2°50.658 1.9 37 10.8 101920 50
2010-10-12 07:53:10 51°13.106 2°50.626 2 23 10.8 101920 49
2010-10-12 07:53:15 51°13.095 2°50.598 0.7 27 10.8 101920 49
2010-10-12 07:53:20 51°13.086 2°50.568 1.4 34 10.8 101920 49
2010-10-12 07:53:25 51°13.075 2°50.543 0.2 32 10.8 101920 49
2010-10-12 07:53:30 51°13.065 2°50.514 2.9 37 10.8 101920 49
2010-10-12 07:53:35 51°13.055 2°50.485 3 36 10.8 101920 49
2010-10-12 07:53:40 51°13.045 2°50.457 2.1 41 10.8 101920 47
2010-10-12 07:53:44 51°13.037 2°50.435 2.6 39 10.8 101920 47
2010-10-12 07:53:50 51°13.025 2°50.401 2.5 43 10.8 101920 48
2010-10-12 07:53:55 51°13.016 2°50.372 3.7 45 10.8 101920 48
2010-10-12 07:54:00 51°13.005 2°50.344 3 41 10.9 101920 48
2010-10-12 07:54:04 51°12.997 2°50.322 3.3 39 10.9 101920 48
2010-10-12 07:54:10 51°12.986 2°50.287 3.4 37 10.9 101930 49
2010-10-12 07:54:15 51°12.975 2°50.26 3 44 10.9 101930 49
2010-10-12 07:54:20 51°12.965 2°50.232 2.7 21 10.9 101920 49
2010-10-12 07:54:24 51°12.957 2°50.21 3.3 39 10.9 101920 49
2010-10-12 07:54:30 51°12.945 2°50.177 2.3 42 10.8 101930 47
2010-10-12 07:54:35 51°12.935 2°50.148 2.8 34 10.8 101930 47
2010-10-12 07:54:40 51°12.926 2°50.12 1.9 28 10.8 101920 48
2010-10-12 07:54:44 51°12.915 2°50.1 1.7 41 10.8 101920 48
2010-10-12 07:54:50 51°12.904 2°50.066 2.2 44 10.8 101920 48
2010-10-12 07:54:55 51°12.893 2°50.038 1.4 45 10.8 101920 48
2010-10-12 07:55:00 51°12.883 2°50.01 2 39 10.8 101930 49
2010-10-12 07:55:04 51°12.876 2°49.988 2.1 58 10.8 101930 49
2010-10-12 07:55:10 51°12.863 2°49.955 2.1 20 10.8 101920 50
2010-10-12 07:55:15 51°12.853 2°49.926 2.5 43 10.8 101920 50
2010-10-12 07:55:20 51°12.843 2°49.897 2.7 43 10.8 101930 49
2010-10-12 07:55:25 51°12.833 2°49.87 2.8 45 10.8 101930 49
2010-10-12 07:55:29 51°12.825 2°49.846 3.2 42 10.8 101920 48
2010-10-12 07:55:35 51°12.813 2°49.812 2.3 57 10.8 101920 48
2010-10-12 07:55:40 51°12.803 2°49.784 1 21 10.8 101920 51
2010-10-12 07:55:45 51°12.794 2°49.755 1.6 49 10.8 101920 51
2010-10-12 07:55:49 51°12.785 2°49.734 1.2 27 10.8 101920 47
2010-10-12 07:55:55 51°12.774 2°49.698 2.1 52 10.8 101920 47
2010-10-12 07:56:00 51°12.763 2°49.671 1.1 23 10.8 101920 48
2010-10-12 07:56:04 51°12.755 2°49.65 0.6 58 10.8 101920 48
2010-10-12 07:56:09 51°12.744 2°49.622 1.8 25 10.8 101920 49
2010-10-12 07:56:15 51°12.732 2°49.589 1.5 58 10.8 101920 49
2010-10-12 07:56:20 51°12.721 2°49.562 1 21 10.8 101930 50
2010-10-12 07:56:24 51°12.714 2°49.539 0.4 58 10.8 101930 50
2010-10-12 07:56:29 51°12.702 2°49.514 0.2 27 10.9 101920 48
2010-10-12 07:56:35 51°12.69 2°49.48 0.2 57 10.9 101920 48
2010-10-12 07:56:40 51°12.678 2°49.454 0.2 26 10.9 101920 49
2010-10-12 07:56:44 51°12.672 2°49.43 1.6 59 10.9 101920 49
2010-10-12 07:56:49 51°12.66 2°49.406 1.6 26 10.9 101910 48
2010-10-12 07:56:55 51°12.649 2°49.372 0.5 54 10.9 101910 48
2010-10-12 07:57:00 51°12.638 2°49.345 0.1 21 10.9 101920 48
2010-10-12 07:57:04 51°12.63 2°49.322 1 58 10.9 101920 48
2010-10-12 07:57:09 51°12.62 2°49.296 1.3 21 10.9 101920 47
2010-10-12 07:57:15 51°12.608 2°49.262 0.4 50 10.9 101920 47
2010-10-12 07:57:20 51°12.599 2°49.234 0.3 22 10.9 101910 49
2010-10-12 07:57:25 51°12.589 2°49.206 2.4 52 10.9 101910 49
2010-10-12 07:57:29 51°12.581 2°49.184 1.6 21 10.9 101920 49
2010-10-12 07:57:35 51°12.57 2°49.149 0.2 52 10.9 101920 49
2010-10-12 07:57:40 51°12.56 2°49.121 2.1 22 10.9 101920 49
2010-10-12 07:57:45 51°12.549 2°49.092 2.3 51 10.9 101920 49
2010-10-12 07:57:49 51°12.543 2°49.069 2.1 21 10.9 101910 49
2010-10-12 07:57:55 51°12.528 2°49.037 1.4 24 10.9 101910 49
2010-10-12 07:58:00 51°12.519 2°49.008 0.4 23 10.9 101910 50
2010-10-12 07:58:04 51°12.51 2°48.986 0.1 50 10.9 101910 50
2010-10-12 07:58:10 51°12.498 2°48.954 0.1 27 10.9 101920 48
2010-10-12 07:58:15 51°12.487 2°48.926 1.7 53 10.9 101920 48
2010-10-12 07:58:20 51°12.477 2°48.898 1.3 23 10.9 101920 49
2010-10-12 07:58:24 51°12.47 2°48.876 0.3 51 10.9 101920 49
2010-10-12 07:58:30 51°12.458 2°48.843 1.9 26 11 101910 50
2010-10-12 07:58:35 51°12.447 2°48.816 2.3 49 11 101910 50
2010-10-12 07:58:40 51°12.438 2°48.787 0.5 24 11 101910 49
2010-10-12 07:58:44 51°12.429 2°48.767 1.9 312 11 101910 49
2010-10-12 07:58:49 51°12.418 2°48.739 1.4 24 11.1 101910 50
2010-10-12 07:58:55 51°12.407 2°48.706 1.5 52 11.1 101910 50
2010-10-12 07:59:00 51°12.396 2°48.679 1.4 21 11.1 101920 48
2010-10-12 07:59:05 51°12.385 2°48.653 0.4 52 11.1 101920 48
2010-10-12 07:59:09 51°12.377 2°48.63 0.5 21 11.1 101920 51
2010-10-12 07:59:15 51°12.365 2°48.597 1.3 59 11.1 101920 51
2010-10-12 07:59:20 51°12.354 2°48.57 0.2 28 11.2 101920 49
2010-10-12 07:59:25 51°12.345 2°48.541 0.8 57 11.2 101920 49
2010-10-12 07:59:29 51°12.336 2°48.52 2.4 27 11.2 101910 50
2010-10-12 07:59:35 51°12.325 2°48.486 0.4 57 11.2 101910 50
2010-10-12 07:59:40 51°12.315 2°48.458 0.2 27 11.2 101910 49
2010-10-12 07:59:44 51°12.308 2°48.434 0.2 59 11.2 101910 49
2010-10-12 07:59:49 51°12.298 2°48.408 1.4 22 11.2 101910 50
2010-10-12 07:59:55 51°12.287 2°48.373 0.9 55 11.2 101910 50
2010-10-12 08:00:00 51°12.277 2°48.346 0.2 27 11.2 101920 49
2010-10-12 08:00:04 51°12.268 2°48.324 1.5 53 11.2 101920 49
2010-10-12 08:00:10 51°12.257 2°48.29 1.2 23 11.2 101920 48
2010-10-12 08:00:15 51°12.246 2°48.264 0.3 51 11.2 101920 48
2010-10-12 08:00:20 51°12.238 2°48.235 1.2 44 11.2 101920 48
2010-10-12 08:00:24 51°12.229 2°48.213 0.6 59 11.2 101920 48
2010-10-12 08:00:30 51°12.216 2°48.181 0.8 27 11.2 101920 49
2010-10-12 08:00:35 51°12.206 2°48.154 1.3 59 11.2 101920 49
2010-10-12 08:00:40 51°12.196 2°48.125 0.2 27 11.2 101920 49
2010-10-12 08:00:44 51°12.187 2°48.104 0.2 53 11.2 101920 49
2010-10-12 08:00:50 51°12.176 2°48.07 0.2 29 11.2 101910 47
2010-10-12 08:00:55 51°12.165 2°48.042 0.2 40 11.2 101910 47
2010-10-12 08:01:00 51°12.157 2°48.014 1.5 21 11.2 101920 49
2010-10-12 08:01:04 51°12.148 2°47.993 0.2 53 11.2 101920 49
2010-10-12 08:01:09 51°12.139 2°47.964 0.1 23 11.2 101910 49
2010-10-12 08:01:15 51°12.126 2°47.932 0.1 58 11.2 101910 49
2010-10-12 08:01:20 51°12.116 2°47.903 0.3 20 11.2 101920 49
2010-10-12 08:01:24 51°12.108 2°47.881 0.1 55 11.2 101920 49
2010-10-12 08:01:29 51°12.097 2°47.855 1.6 23 11.2 101910 49
2010-10-12 08:01:35 51°12.086 2°47.82 1.8 54 11.2 101910 49
2010-10-12 08:01:40 51°12.076 2°47.792 1.2 24 11.3 101910 49
2010-10-12 08:01:44 51°12.067 2°47.77 0.8 51 11.3 101910 49
2010-10-12 08:01:49 51°12.059 2°47.741 1.9 23 11.3 101920 49
2010-10-12 08:01:55 51°12.046 2°47.709 1.6 59 11.3 101920 49
2010-10-12 08:02:00 51°12.034 2°47.682 0.4 22 11.3 101920 49
2010-10-12 08:02:04 51°12.028 2°47.658 1.3 59 11.3 101920 49
2010-10-12 08:02:10 51°12.013 2°47.628 0.8 30 11.3 101920 48
2010-10-12 08:02:15 51°12.004 2°47.599 0.4 45 11.3 101920 48
2010-10-12 08:02:20 51°11.992 2°47.574 0.3 23 11.3 101910 49
2010-10-12 08:02:24 51°11.985 2°47.551 0.9 52 11.3 101910 49
2010-10-12 08:02:30 51°11.973 2°47.518 1.5 23 11.3 101920 49
2010-10-12 08:02:35 51°11.963 2°47.49 1 43 11.3 101920 49
2010-10-12 08:02:40 51°11.953 2°47.462 1.4 39 11.3 101920 49
2010-10-12 08:02:44 51°11.945 2°47.439 0.3 36 11.3 101920 49
2010-10-12 08:02:50 51°11.934 2°47.406 1 23 11.3 101920 49
2010-10-12 08:02:55 51°11.924 2°47.378 0.2 57 11.3 101920 49
2010-10-12 08:03:00 51°11.914 2°47.35 1.8 23 11.3 101920 51
2010-10-12 08:03:04 51°11.906 2°47.327 1.1 59 11.3 101920 51
2010-10-12 08:03:09 51°11.896 2°47.299 1.4 42 11.4 101920 49
2010-10-12 08:03:15 51°11.885 2°47.266 0.3 58 11.4 101920 49
2010-10-12 08:03:20 51°11.875 2°47.237 0.2 21 11.3 101920 49
2010-10-12 08:03:24 51°11.868 2°47.214 0.1 51 11.3 101920 49
2010-10-12 08:03:29 51°11.859 2°47.186 0.7 27 11.4 101920 49
2010-10-12 08:03:35 51°11.847 2°47.153 1.5 52 11.4 101920 49
2010-10-12 08:03:40 51°11.837 2°47.125 0.2 28 11.4 101920 49
2010-10-12 08:03:44 51°11.831 2°47.101 0.2 57 11.4 101920 49
2010-10-12 08:03:49 51°11.819 2°47.074 0.1 19 11.3 101910 49
2010-10-12 08:03:55 51°11.809 2°47.039 1.9 54 11.3 101910 49
2010-10-12 08:04:00 51°11.798 2°47.012 0.3 23 11.4 101910 49
2010-10-12 08:04:04 51°11.791 2°46.989 0.1 52 11.4 101910 49
2010-10-12 08:04:10 51°11.779 2°46.956 0.1 27 11.4 101910 49
2010-10-12 08:04:15 51°11.769 2°46.927 0.1 45 11.4 101910 49
2010-10-12 08:04:20 51°11.76 2°46.898 0.1 20 11.4 101910 49
2010-10-12 08:04:24 51°11.752 2°46.876 0.1 54 11.4 101910 49
2010-10-12 08:04:30 51°11.74 2°46.843 0.3 24 11.4 101910 49
2010-10-12 08:04:35 51°11.731 2°46.814 0.1 54 11.4 101910 49
2010-10-12 08:04:40 51°11.721 2°46.786 0.1 27 11.4 101920 49
2010-10-12 08:04:45 51°11.712 2°46.758 0.1 49 11.4 101920 49
2010-10-12 08:04:50 51°11.702 2°46.731 1.2 28 11.4 101920 48
2010-10-12 08:04:55 51°11.691 2°46.704 0.2 54 11.4 101920 48
2010-10-12 08:05:00 51°11.682 2°46.674 0.1 22 11.4 101920 49
2010-10-12 08:05:04 51°11.673 2°46.654 1.7 54 11.4 101920 49
2010-10-12 08:05:10 51°11.661 2°46.621 0.9 23 11.3 101920 49
2010-10-12 08:05:15 51°11.651 2°46.592 0.9 77 11.3 101920 49
2010-10-12 08:05:20 51°11.64 2°46.565 0.2 29 11.4 101920 49
2010-10-12 08:05:24 51°11.632 2°46.543 0.2 40 11.4 101920 49
2010-10-12 08:05:29 51°11.623 2°46.515 2.5 23 11.4 101920 51
2010-10-12 08:05:35 51°11.61 2°46.481 1.8 57 11.4 101920 51
2010-10-12 08:05:40 51°11.601 2°46.453 1 22 11.4 101920 49
2010-10-12 08:05:44 51°11.593 2°46.431 1.4 49 11.4 101920 49
2010-10-12 08:05:50 51°11.582 2°46.397 2.5 42 11.4 101920 48
2010-10-12 08:05:55 51°11.571 2°46.37 0.5 51 11.4 101920 48
2010-10-12 08:06:00 51°11.562 2°46.34 2.4 32 11.4 101910 49
2010-10-12 08:06:04 51°11.555 2°46.318 1.5 58 11.4 101910 49
2010-10-12 08:06:10 51°11.541 2°46.287 1.7 19 11.4 101920 47
2010-10-12 08:06:15 51°11.531 2°46.259 0.9 57 11.4 101920 47
2010-10-12 08:06:20 51°11.521 2°46.231 0.2 36 11.4 101910 51
2010-10-12 08:06:24 51°11.513 2°46.209 1.7 50 11.4 101910 51
2010-10-12 08:06:30 51°11.501 2°46.177 0.3 27 11.4 101910 49
2010-10-12 08:06:35 51°11.491 2°46.149 1.7 50 11.4 101910 49
2010-10-12 08:06:40 51°11.482 2°46.12 2.1 23 11.4 101920 49
2010-10-12 08:06:45 51°11.471 2°46.094 0.6 56 11.4 101920 49
2010-10-12 08:06:50 51°11.463 2°46.064 2.6 21 11.5 101910 51
2010-10-12 08:06:55 51°11.452 2°46.037 0.4 53 11.5 101910 51
2010-10-12 08:07:00 51°11.443 2°46.009 1.2 44 11.5 101910 51
2010-10-12 08:07:05 51°11.433 2°45.981 0.5 52 11.5 101910 51
2010-10-12 08:07:10 51°11.423 2°45.953 0.5 40 11.4 101910 50
2010-10-12 08:07:15 51°11.414 2°45.924 0.7 34 11.4 101910 50
2010-10-12 08:07:20 51°11.404 2°45.897 0.6 20 11.4 101910 49
2010-10-12 08:07:24 51°11.396 2°45.875 2 50 11.4 101910 49
2010-10-12 08:07:29 51°11.387 2°45.847 2 22 11.4 101910 48
2010-10-12 08:07:35 51°11.375 2°45.813 3.2 57 11.4 101910 48
2010-10-12 08:07:40 51°11.366 2°45.785 3.1 42 11.4 101910 49
2010-10-12 08:07:44 51°11.358 2°45.763 2.6 53 11.4 101910 49
2010-10-12 08:07:50 51°11.347 2°45.729 3.6 22 11.5 101910 49
2010-10-12 08:07:55 51°11.337 2°45.7 3 51 11.5 101910 49
2010-10-12 08:08:00 51°11.328 2°45.672 4 28 11.4 101910 48
2010-10-12 08:08:04 51°11.32 2°45.65 1.3 36 11.4 101910 48
2010-10-12 08:08:10 51°11.309 2°45.617 2.7 40 11.5 101910 49
2010-10-12 08:08:15 51°11.3 2°45.588 2.7 30 11.5 101910 49
2010-10-12 08:08:20 51°11.289 2°45.561 2.1 41 11.4 101910 48
2010-10-12 08:08:24 51°11.282 2°45.538 2.4 25 11.4 101910 48
2010-10-12 08:08:29 51°11.272 2°45.511 1.4 31 11.4 101910 51
2010-10-12 08:08:35 51°11.262 2°45.476 3.6 30 11.4 101910 51
2010-10-12 08:08:40 51°11.251 2°45.45 2.7 36 11.5 101900 47
2010-10-12 08:08:45 51°11.243 2°45.42 3.4 33 11.5 101900 47
2010-10-12 08:08:49 51°11.234 2°45.399 2.5 35 11.5 101910 50
2010-10-12 08:08:55 51°11.223 2°45.364 3.2 35 11.5 101910 50
2010-10-12 08:09:00 51°11.212 2°45.337 2.9 31 11.5 101910 49
2010-10-12 08:09:05 51°11.203 2°45.309 2.5 35 11.5 101910 49
2010-10-12 08:09:09 51°11.195 2°45.288 2.6 34 11.5 101910 49
2010-10-12 08:09:15 51°11.184 2°45.253 2.5 39 11.5 101910 49
2010-10-12 08:09:20 51°11.173 2°45.225 1.7 27 11.4 101910 48
2010-10-12 08:09:25 51°11.164 2°45.196 3.1 33 11.4 101910 48
2010-10-12 08:09:29 51°11.155 2°45.175 2.9 38 11.4 101900 48
2010-10-12 08:09:35 51°11.144 2°45.142 3 36 11.4 101900 48
2010-10-12 08:09:40 51°11.135 2°45.114 2.7 39 11.4 101910 48
2010-10-12 08:09:44 51°11.126 2°45.092 2 35 11.4 101910 48
2010-10-12 08:09:49 51°11.117 2°45.063 2.7 34 11.4 101910 49
2010-10-12 08:09:55 51°11.103 2°45.033 0.4 36 11.4 101910 49
2010-10-12 08:10:00 51°11.094 2°45.004 2 31 11.4 101900 48
2010-10-12 08:10:04 51°11.086 2°44.983 1.6 41 11.4 101900 48
2010-10-12 08:10:09 51°11.076 2°44.956 1.9 45 11.4 101910 47
2010-10-12 08:10:15 51°11.063 2°44.923 1.8 75 11.4 101910 47
2010-10-12 08:10:20 51°11.052 2°44.895 0.5 30 11.4 101910 47
2010-10-12 08:10:24 51°11.044 2°44.874 1.6 44 11.4 101910 47
2010-10-12 08:10:29 51°11.034 2°44.846 4.1 42 11.4 101900 48
2010-10-12 08:10:35 51°11.023 2°44.814 3.2 55 11.4 101900 48
2010-10-12 08:10:40 51°11.012 2°44.787 3.6 27 11.4 101910 51
2010-10-12 08:10:45 51°11.003 2°44.759 2.9 51 11.4 101910 51
2010-10-12 08:10:49 51°10.995 2°44.736 2.6 23 11.4 101900 51
2010-10-12 08:10:55 51°10.984 2°44.702 3 52 11.4 101900 51
2010-10-12 08:11:00 51°10.974 2°44.676 2.4 44 11.4 101900 51
2010-10-12 08:11:05 51°10.965 2°44.648 3.3 42 11.4 101900 51
2010-10-12 08:11:09 51°10.958 2°44.625 2.8 40 11.4 101900 48
2010-10-12 08:11:15 51°10.947 2°44.591 3.3 39 11.4 101900 48
2010-10-12 08:11:20 51°10.938 2°44.564 2.9 44 11.4 101900 48
2010-10-12 08:11:25 51°10.928 2°44.537 3 55 11.4 101900 48
2010-10-12 08:11:29 51°10.921 2°44.515 2.8 28 11.4 101910 48
2010-10-12 08:11:35 51°10.91 2°44.481 2 44 11.4 101910 48
2010-10-12 08:11:40 51°10.902 2°44.454 2.1 23 11.3 101900 48
2010-10-12 08:11:44 51°10.894 2°44.433 2.6 42 11.3 101900 48
2010-10-12 08:11:50 51°10.884 2°44.399 2.3 22 11.3 101900 48
2010-10-12 08:11:55 51°10.873 2°44.372 2.1 57 11.3 101900 48
2010-10-12 08:12:00 51°10.864 2°44.345 2.6 21 11.3 101910 48
2010-10-12 08:12:04 51°10.856 2°44.324 1.8 53 11.3 101910 48
2010-10-12 08:12:10 51°10.844 2°44.292 1.9 23 11.2 101900 50
2010-10-12 08:12:15 51°10.834 2°44.265 0.7 77 11.2 101900 50
2010-10-12 08:12:20 51°10.824 2°44.238 1.4 22 11.2 101910 49
2010-10-12 08:12:25 51°10.814 2°44.212 1.1 57 11.2 101910 49
2010-10-12 08:12:29 51°10.806 2°44.191 1.5 25 11.2 101910 48
2010-10-12 08:12:35 51°10.796 2°44.157 1.9 58 11.2 101910 48
2010-10-12 08:12:40 51°10.786 2°44.131 1.3 25 11.2 101910 48
2010-10-12 08:12:44 51°10.779 2°44.108 1.6 40 11.2 101910 48
2010-10-12 08:12:49 51°10.771 2°44.08 1.5 23 11.2 101910 48
2010-10-12 08:12:55 51°10.761 2°44.047 0.5 39 11.2 101910 48
2010-10-12 08:13:00 51°10.755 2°44.018 2.4 42 11.2 101900 51
2010-10-12 08:13:05 51°10.746 2°43.99 1.6 39 11.2 101900 51
2010-10-12 08:13:09 51°10.74 2°43.967 2.3 31 11.3 101910 49
2010-10-12 08:13:15 51°10.731 2°43.933 2.1 30 11.3 101910 49
2010-10-12 08:13:20 51°10.724 2°43.904 2 26 11.3 101910 49
2010-10-12 08:13:25 51°10.717 2°43.875 2.7 23 11.3 101910 49
2010-10-12 08:13:29 51°10.711 2°43.853 3.1 22 11.3 101900 49
2010-10-12 08:13:35 51°10.703 2°43.817 3.6 25 11.3 101900 49
2010-10-12 08:13:40 51°10.696 2°43.789 3.2 29 11.3 101900 51
2010-10-12 08:13:44 51°10.691 2°43.765 3.5 44 11.3 101900 51
2010-10-12 08:13:49 51°10.683 2°43.736 3.3 34 11.3 101900 50
2010-10-12 08:13:55 51°10.674 2°43.702 2.3 42 11.3 101900 50
2010-10-12 08:14:00 51°10.668 2°43.672 2.5 40 11.4 101900 48
2010-10-12 08:14:04 51°10.661 2°43.649 2.2 28 11.4 101900 48
2010-10-12 08:14:09 51°10.655 2°43.62 2 35 11.4 101900 48
2010-10-12 08:14:15 51°10.647 2°43.585 3.1 38 11.4 101900 48
2010-10-12 08:14:20 51°10.639 2°43.556 3.3 35 11.4 101900 51
2010-10-12 08:14:24 51°10.634 2°43.533 2.1 40 11.4 101900 51
2010-10-12 08:14:29 51°10.626 2°43.504 3.7 30 11.4 101900 49
2010-10-12 08:14:35 51°10.618 2°43.469 2 38 11.4 101900 49
2010-10-12 08:14:40 51°10.61 2°43.44 2.3 34 11.4 101900 49
2010-10-12 08:14:44 51°10.604 2°43.417 2.2 31 11.4 101900 49
2010-10-12 08:14:49 51°10.597 2°43.388 2.4 45 11.4 101900 48
2010-10-12 08:14:55 51°10.589 2°43.354 2.4 59 11.4 101900 48
2010-10-12 08:15:00 51°10.582 2°43.325 2.2 42 11.4 101900 50
2010-10-12 08:15:05 51°10.576 2°43.295 1.9 26 11.4 101900 50
2010-10-12 08:15:09 51°10.57 2°43.271 1.8 29 11.4 101900 49
2010-10-12 08:15:15 51°10.562 2°43.237 3 33 11.4 101900 49
2010-10-12 08:15:20 51°10.555 2°43.208 3.3 35 11.4 101900 48
2010-10-12 08:15:25 51°10.547 2°43.179 3.4 26 11.4 101900 48
2010-10-12 08:15:29 51°10.542 2°43.156 2.2 35 11.4 101900 47
2010-10-12 08:15:35 51°10.534 2°43.121 2.2 40 11.4 101900 47
2010-10-12 08:15:40 51°10.525 2°43.093 2 36 11.4 101900 50
2010-10-12 08:15:45 51°10.518 2°43.064 2.5 32 11.4 101900 50
2010-10-12 08:15:50 51°10.51 2°43.036 2.5 22 11.4 101900 51
2010-10-12 08:15:55 51°10.501 2°43.008 3 41 11.4 101900 51
2010-10-12 08:16:00 51°10.493 2°42.981 2.9 21 11.4 101900 51
2010-10-12 08:16:04 51°10.486 2°42.958 2.9 41 11.4 101900 51
2010-10-12 08:16:10 51°10.477 2°42.925 2.9 24 11.5 101900 51
2010-10-12 08:16:15 51°10.47 2°42.896 3.5 42 11.5 101900 51
2010-10-12 08:16:20 51°10.462 2°42.868 4.1 44 11.5 101900 51
2010-10-12 08:16:24 51°10.456 2°42.846 3.6 57 11.5 101900 51
2010-10-12 08:16:30 51°10.447 2°42.811 3.4 40 11.5 101900 51
2010-10-12 08:16:35 51°10.44 2°42.782 2.2 36 11.5 101900 51
2010-10-12 08:16:40 51°10.433 2°42.754 2.7 31 11.5 101900 49
2010-10-12 08:16:44 51°10.428 2°42.731 4.1 41 11.5 101900 49
2010-10-12 08:16:49 51°10.421 2°42.703 4 36 11.5 101900 50
2010-10-12 08:16:55 51°10.414 2°42.668 3.7 36 11.5 101900 50
2010-10-12 08:17:00 51°10.408 2°42.639 3.6 41 11.5 101900 50
2010-10-12 08:17:05 51°10.401 2°42.61 2.1 56 11.5 101900 50
2010-10-12 08:17:09 51°10.396 2°42.586 4.1 37 11.4 101900 49
2010-10-12 08:17:15 51°10.389 2°42.552 2.9 34 11.4 101900 49
2010-10-12 08:17:20 51°10.383 2°42.522 2.6 36 11.4 101900 48
2010-10-12 08:17:25 51°10.377 2°42.493 3.5 36 11.4 101900 48
2010-10-12 08:17:29 51°10.372 2°42.47 3.5 37 11.4 101900 48
2010-10-12 08:17:35 51°10.366 2°42.434 4.3 32 11.4 101900 48
2010-10-12 08:17:40 51°10.359 2°42.405 3.1 26 11.4 101900 51
2010-10-12 08:17:45 51°10.354 2°42.375 5 29 11.4 101900 51
2010-10-12 08:17:49 51°10.35 2°42.352 3.5 32 11.4 101900 50
2010-10-12 08:17:55 51°10.343 2°42.317 3.4 26 11.4 101900 50
2010-10-12 08:18:00 51°10.338 2°42.287 2.9 22 11.4 101900 50
2010-10-12 08:18:05 51°10.332 2°42.257 3.6 29 11.4 101900 50
2010-10-12 08:18:10 51°10.327 2°42.227 4.1 31 11.4 101900 49
2010-10-12 08:18:15 51°10.32 2°42.198 3.6 37 11.4 101900 49
2010-10-12 08:18:20 51°10.315 2°42.169 3.7 34 11.4 101900 49
2010-10-12 08:18:25 51°10.308 2°42.14 3.3 24 11.4 101900 49
2010-10-12 08:18:30 51°10.304 2°42.11 3.5 22 11.4 101900 49
2010-10-12 08:18:35 51°10.296 2°42.081 4.1 20 11.4 101900 49
2010-10-12 08:18:40 51°10.292 2°42.051 4.3 21 11.4 101910 48
2010-10-12 08:18:44 51°10.286 2°42.028 3.8 29 11.4 101910 48
2010-10-12 08:18:50 51°10.28 2°41.992 5.1 27 11.4 101900 50
2010-10-12 08:18:55 51°10.273 2°41.963 4.4 27 11.4 101900 50
2010-10-12 08:19:00 51°10.269 2°41.933 4.8 31 11.4 101900 48
2010-10-12 08:19:04 51°10.263 2°41.91 4.8 33 11.4 101900 48
2010-10-12 08:19:09 51°10.258 2°41.88 4.9 34 11.4 101900 49
2010-10-12 08:19:15 51°10.25 2°41.845 3.4 36 11.4 101900 49
2010-10-12 08:19:20 51°10.245 2°41.815 3.5 34 11.4 101900 48
2010-10-12 08:19:24 51°10.24 2°41.791 3.5 35 11.4 101900 48
2010-10-12 08:19:29 51°10.234 2°41.762 2.9 33 11.4 101900 51
2010-10-12 08:19:35 51°10.228 2°41.726 3.8 33 11.4 101900 51
2010-10-12 08:19:40 51°10.222 2°41.696 3.1 39 11.4 101900 48
2010-10-12 08:19:44 51°10.217 2°41.673 3.2 30 11.4 101900 48
2010-10-12 08:19:49 51°10.212 2°41.643 2.7 38 11.4 101900 47
2010-10-12 08:19:55 51°10.205 2°41.607 3 34 11.4 101900 47
2010-10-12 08:20:00 51°10.2 2°41.577 2.8 35 11.3 101900 49
2010-10-12 08:20:04 51°10.194 2°41.553 2.6 39 11.3 101900 49
2010-10-12 08:20:10 51°10.188 2°41.517 2.5 23 11.4 101900 48
2010-10-12 08:20:15 51°10.182 2°41.488 1.8 34 11.4 101900 48
2010-10-12 08:20:20 51°10.177 2°41.458 3.2 20 11.4 101900 49
2010-10-12 08:20:24 51°10.17 2°41.434 3 25 11.4 101900 49
2010-10-12 08:20:30 51°10.165 2°41.398 3.6 28 11.4 101900 49
2010-10-12 08:20:35 51°10.156 2°41.37 4.1 37 11.4 101900 49
2010-10-12 08:20:40 51°10.149 2°41.34 3.7 37 11.4 101900 49
2010-10-12 08:20:44 51°10.144 2°41.316 3.8 39 11.4 101900 49
2010-10-12 08:20:50 51°10.135 2°41.283 3.1 38 11.4 101900 50
2010-10-12 08:20:55 51°10.129 2°41.253 3.1 38 11.4 101900 50
2010-10-12 08:21:00 51°10.123 2°41.222 4.2 33 11.4 101900 48
2010-10-12 08:21:04 51°10.118 2°41.199 2.7 37 11.4 101900 48
2010-10-12 08:21:10 51°10.109 2°41.163 2.4 35 11.5 101900 51
2010-10-12 08:21:15 51°10.104 2°41.134 2.5 40 11.5 101900 51
2010-10-12 08:21:20 51°10.096 2°41.105 1.5 26 11.4 101900 50
2010-10-12 08:21:24 51°10.091 2°41.081 3.1 23 11.4 101900 50
2010-10-12 08:21:29 51°10.086 2°41.051 3.6 23 11.5 101900 49
2010-10-12 08:21:35 51°10.077 2°41.015 2.9 21 11.5 101900 49
2010-10-12 08:21:40 51°10.072 2°40.985 3.3 23 11.5 101900 49
2010-10-12 08:21:44 51°10.067 2°40.961 3.1 24 11.5 101900 49
2010-10-12 08:21:50 51°10.06 2°40.925 3.9 26 11.5 101900 50
2010-10-12 08:21:55 51°10.054 2°40.895 3.8 26 11.5 101900 50
2010-10-12 08:22:00 51°10.049 2°40.865 4.6 29 11.5 101900 49
2010-10-12 08:22:04 51°10.044 2°40.841 3.3 18 11.5 101900 49
2010-10-12 08:22:10 51°10.038 2°40.804 3.8 24 11.5 101900 51
2010-10-12 08:22:15 51°10.031 2°40.775 3.2 21 11.5 101900 51
2010-10-12 08:22:20 51°10.027 2°40.745 3.4 31 11.5 101900 48
2010-10-12 08:22:24 51°10.021 2°40.722 3.8 23 11.5 101900 48
2010-10-12 08:22:30 51°10.014 2°40.685 3.2 23 11.5 101900 50
2010-10-12 08:22:35 51°10.008 2°40.655 3.1 15 11.5 101900 50
2010-10-12 08:22:40 51°10.002 2°40.626 2.5 21 11.5 101900 51
2010-10-12 08:22:44 51°9.996 2°40.602 4.5 31 11.5 101900 51
2010-10-12 08:22:50 51°9.989 2°40.567 3.6 37 11.5 101900 48
2010-10-12 08:22:55 51°9.984 2°40.536 4.8 33 11.5 101900 48
2010-10-12 08:23:00 51°9.978 2°40.507 2.5 32 11.5 101900 51
2010-10-12 08:23:04 51°9.974 2°40.482 4 26 11.5 101900 51
2010-10-12 08:23:09 51°9.968 2°40.453 2.3 34 11.5 101900 51
2010-10-12 08:23:15 51°9.962 2°40.417 4.9 24 11.5 101900 51
2010-10-12 08:23:20 51°9.955 2°40.387 4.4 31 11.5 101900 50
2010-10-12 08:23:24 51°9.951 2°40.363 3.4 39 11.5 101900 50
2010-10-12 08:23:29 51°9.944 2°40.333 3.3 26 11.5 101900 47
2010-10-12 08:23:35 51°9.938 2°40.297 2.9 33 11.5 101900 47
2010-10-12 08:23:40 51°9.931 2°40.267 2.5 35 11.5 101900 51
2010-10-12 08:23:44 51°9.927 2°40.243 3.8 35 11.5 101900 51
2010-10-12 08:23:50 51°9.919 2°40.208 2.5 37 11.5 101900 48
2010-10-12 08:23:55 51°9.914 2°40.177 3.8 35 11.5 101900 48
2010-10-12 08:24:00 51°9.906 2°40.148 3.1 35 11.5 101900 48
2010-10-12 08:24:04 51°9.903 2°40.124 3.8 36 11.5 101900 48
2010-10-12 08:24:10 51°9.894 2°40.089 3.6 33 11.5 101900 48
2010-10-12 08:24:15 51°9.89 2°40.059 3.3 35 11.5 101900 48
2010-10-12 08:24:20 51°9.882 2°40.03 2.7 38 11.5 101900 51
2010-10-12 08:24:24 51°9.879 2°40.005 2.4 38 11.5 101900 51
2010-10-12 08:24:30 51°9.87 2°39.971 1.8 35 11.5 101900 49
2010-10-12 08:24:35 51°9.866 2°39.941 2.5 37 11.5 101900 49
2010-10-12 08:24:40 51°9.859 2°39.911 1.6 40 11.5 101890 50
2010-10-12 08:24:45 51°9.854 2°39.881 2.3 27 11.5 101890 50
2010-10-12 08:24:50 51°9.848 2°39.851 1.6 36 11.5 101890 49
2010-10-12 08:24:55 51°9.843 2°39.821 1.9 44 11.5 101890 49
2010-10-12 08:25:00 51°9.836 2°39.792 2.2 31 11.5 101900 49
2010-10-12 08:25:04 51°9.831 2°39.768 1.8 24 11.5 101900 49
2010-10-12 08:25:09 51°9.826 2°39.737 3 26 11.5 101900 49
2010-10-12 08:25:15 51°9.817 2°39.703 2.3 26 11.5 101900 49
2010-10-12 08:25:20 51°9.811 2°39.673 2 32 11.5 101890 48
2010-10-12 08:25:24 51°9.805 2°39.65 3.7 30 11.5 101890 48
2010-10-12 08:25:29 51°9.8 2°39.62 2.8 38 11.5 101890 49
2010-10-12 08:25:35 51°9.792 2°39.583 4 31 11.5 101890 49
2010-10-12 08:25:40 51°9.786 2°39.555 3.1 28 11.5 101890 48
2010-10-12 08:25:44 51°9.78 2°39.531 2.8 42 11.5 101890 48
2010-10-12 08:25:50 51°9.773 2°39.496 3.1 36 11.5 101890 51
2010-10-12 08:25:55 51°9.766 2°39.467 2.1 37 11.5 101890 51
2010-10-12 08:26:00 51°9.761 2°39.437 2.4 32 11.5 101900 50
2010-10-12 08:26:04 51°9.756 2°39.413 0.8 38 11.5 101900 50
2010-10-12 08:26:09 51°9.75 2°39.383 2.6 31 11.5 101900 48
2010-10-12 08:26:15 51°9.743 2°39.347 2.5 32 11.5 101900 48
2010-10-12 08:26:20 51°9.737 2°39.317 2.9 26 11.6 101890 48
2010-10-12 08:26:24 51°9.733 2°39.293 3.4 28 11.6 101890 48
2010-10-12 08:26:29 51°9.726 2°39.263 2.9 34 11.6 101890 51
2010-10-12 08:26:35 51°9.721 2°39.226 2.7 39 11.6 101890 51
2010-10-12 08:26:40 51°9.713 2°39.197 2.2 25 11.6 101890 48
2010-10-12 08:26:45 51°9.709 2°39.166 2.5 41 11.6 101890 48
2010-10-12 08:26:49 51°9.703 2°39.142 2.8 31 11.6 101890 49
2010-10-12 08:26:55 51°9.698 2°39.105 3.3 27 11.6 101890 49
2010-10-12 08:27:00 51°9.69 2°39.076 3 26 11.6 101890 48
2010-10-12 08:27:05 51°9.686 2°39.046 5.7 27 11.6 101890 48
2010-10-12 08:27:09 51°9.68 2°39.022 3.6 37 11.6 101890 48
2010-10-12 08:27:15 51°9.673 2°38.986 5 33 11.6 101890 48
2010-10-12 08:27:20 51°9.666 2°38.957 3.5 35 11.7 101880 48
2010-10-12 08:27:24 51°9.662 2°38.932 3.3 33 11.7 101880 48
2010-10-12 08:27:30 51°9.654 2°38.896 4.3 33 11.7 101890 50
2010-10-12 08:27:35 51°9.647 2°38.867 3.8 33 11.7 101890 50
2010-10-12 08:27:40 51°9.642 2°38.837 5.1 33 11.7 101890 49
2010-10-12 08:27:44 51°9.637 2°38.813 4.5 34 11.7 101890 49